Regional Weather Roundup
Issued by NWS

Home | Current Version | Previous Version | Graphics & Text | Print | Product List | Glossary On
Versions: 1 2 3 4 5 6 7 8 9 10 11 12 13 14 15 16 17 18 19 20 21 22 23 24 25 26 27 28 29 30 31 32 33 34 35 36 37 38 39 40 41 42 43 44 45 46 47 48 49 50
579
ASUS43 KBIS 080202
RWRND

NORTH DAKOTA REGIONAL WEATHER ROUNDUP
NATIONAL WEATHER SERVICE BISMARCK ND
800 PM CST SUN FEB 07 2016

NOTE: "FAIR" INDICATES FEW OR NO CLOUDS BELOW 12,000 FEET WITH NO
SIGNIFICANT WEATHER AND/OR OBSTRUCTIONS TO VISIBILITY.


NDZ001>003-009>011-017-080300-
NORTHWEST NORTH DAKOTA

CITY           SKY/WX    TMP DP  RH WIND       PRES   REMARKS
WILLISTON      CLEAR     31  18  58 NW28G37   30.27R WCI  17
MINOT          FLURRIES  31  16  54 NW26G36   30.13R WCI  17
MINOT AFB      CLOUDY    29  19  67 NW26G35   30.12R WCI  14
$$

NDZ018>021-031>035-040>046-080300-
SOUTHWEST NORTH DAKOTA

CITY           SKY/WX    TMP DP  RH WIND       PRES   REMARKS
BISMARCK       CLOUDY    36  20  52 N22G32    30.11R
DICKINSON      CLEAR     29  14  53 NW24G33   30.19R WCI  15
GARRISON         N/A     28  18  66 N30G47    30.13R WCI  12
HETTINGER ARPT CLEAR     31  14  49 NW28G38   30.21R WCI  17
$$

NDZ004>008-012>016-024-026-027-054-080300-
NORTHEAST NORTH DAKOTA

CITY           SKY/WX    TMP DP  RH WIND       PRES   REMARKS
GRAND FORKS    LGT SNOW  14   8  77 N32G40    30.00R BLWGSNOWWCI  -7
GRND FRKS AFB  LGT SNOW  14   9  79 N25G35    30.00R WCI  -5
DEVILS LAKE    FLURRIES  19  14  81 N26G37    30.03R WCI   1
$$

NDZ022-023-025-028>030-036>039-047>053-080300-
SOUTHEAST NORTH DAKOTA

CITY           SKY/WX    TMP DP  RH WIND       PRES   REMARKS
FARGO          LGT SNOW  17  12  80 N25G35    29.97S WCI  -1
JAMESTOWN      CLOUDY    23  14  68 N30G39    29.99R WCI   5
$$





USA.gov is the U.S. government's official web portal to all federal, state and local government web resources and services.